Terminal Aerodrome Forecast
Issued by NWS Shreveport, LA

Home | Current Version | Previous Version | Text Only | Print | Product List | Glossary On
Versions: 1 2 3 4 5 6 7 8 9 10 11 12 13
000
FTUS44 KSHV 171736
TAFELD
TAF
KELD 171736Z 1718/1818 VRB03KT 4SM BR OVC002
      TEMPO 1718/1719 2SM BR
     FM172000 VRB03KT P6SM OVC009
     FM180200 00000KT 6SM BR OVC004
     FM180600 00000KT 1/2SM FG OVC002
     FM181500 VRB03KT 2SM BR VCSH OVC003=

USA.gov is the U.S. government's official web portal to all federal, state and local government web resources and services.